Location: Miles
(41.4492°N, 81.6087°W)
Time: 22:40:05
(UTC+00:00)

A-11 Canister half - All Passes

Search period start: 11 September 2024 00:00
Search period end: 21 September 2024 00:00
Orbit: 1515 x 1684 km, 47.2° (Epoch: 10 September)

Date Brightness Start Highest point End Pass type
(mag) Time Alt. Az. Time Alt. Az. Time Alt. Az.
11 Sep - 00:11:47 10° SSW 00:20:39 48° SE 00:29:22 10° ENE visible
11 Sep - 02:15:53 10° WSW 02:25:13 77° NNW 02:34:32 10° ENE visible
11 Sep - 04:21:45 10° WNW 04:30:56 62° N 04:40:10 10° E visible
11 Sep - 06:27:06 10° WNW 06:36:25 88° SSW 06:45:54 10° ESE visible
11 Sep - 08:32:29 10° WNW 08:40:34 35° SW 08:48:51 10° SSE visible
11 Sep - 21:54:02 10° SE 21:54:38 10° ESE 21:55:14 10° ESE daylight
11 Sep - 23:48:57 10° SSW 23:57:44 46° SE 00:06:21 10° ENE visible
12 Sep - 01:52:51 10° WSW 02:02:13 80° NNW 02:11:31 10° ENE visible
12 Sep - 03:58:44 10° WNW 04:07:54 61° N 04:17:07 10° E visible
12 Sep - 06:04:07 10° WNW 06:13:26 89° NNE 06:22:53 10° ESE visible
12 Sep - 08:09:26 10° WNW 08:17:40 37° SW 08:26:05 10° SSE visible
12 Sep - 23:26:07 10° SSW 23:34:49 43° SE 23:43:19 10° ENE daylight
13 Sep - 01:29:50 10° WSW 01:39:13 82° NNW 01:48:32 10° ENE visible
13 Sep - 03:35:41 10° W 03:44:51 61° N 03:54:03 10° E visible
13 Sep - 05:41:07 10° WNW 05:50:26 86° NNE 05:59:52 10° ESE visible
13 Sep - 07:46:23 10° WNW 07:54:45 39° SW 08:03:17 10° SSE visible
13 Sep - 23:03:18 10° SSW 23:11:53 40° SE 23:20:17 10° ENE daylight
14 Sep - 01:06:49 10° WSW 01:16:14 85° NNW 01:25:32 10° ENE visible
14 Sep - 03:12:38 10° W 03:21:49 61° N 03:31:01 10° E visible
14 Sep - 05:18:08 10° WNW 05:27:26 83° NNE 05:36:51 10° ESE visible
14 Sep - 07:23:21 10° WNW 07:31:49 42° SW 07:40:28 10° SSE visible
14 Sep - 22:40:30 10° SSW 22:48:58 38° SE 22:57:15 10° ENE daylight
15 Sep - 00:43:48 10° WSW 00:53:14 87° NNW 01:02:33 10° ENE visible
15 Sep - 02:49:35 10° W 02:58:47 61° N 03:07:58 10° ENE visible
15 Sep - 04:55:08 10° WNW 05:04:26 81° NNE 05:13:50 10° ESE visible
15 Sep - 07:00:19 10° WNW 07:08:54 44° SW 07:17:40 10° SSE visible
15 Sep - 22:17:43 10° SSW 22:26:03 36° SE 22:34:11 10° ENE daylight
16 Sep - 00:20:47 10° WSW 00:30:15 90° SE 00:39:33 10° ENE visible
16 Sep - 02:26:31 10° W 02:35:45 62° N 02:44:55 10° ENE visible
16 Sep - 04:32:08 10° WNW 04:41:27 78° NNE 04:50:48 10° ESE visible
16 Sep - 06:37:18 10° WNW 06:45:59 47° SW 06:54:49 10° SSE visible
16 Sep - 08:47:03 10° WSW 08:49:07 11° WSW 08:51:11 10° SW night (unlit)
16 Sep - 21:54:58 10° SSW 22:03:08 33° SE 22:11:08 10° ENE daylight
16 Sep - 23:57:47 10° WSW 00:07:16 87° SSE 00:16:34 10° ENE visible
17 Sep - 02:03:28 10° W 02:12:43 62° N 02:21:53 10° ENE visible
17 Sep - 04:09:08 10° WNW 04:18:26 76° NNE 04:27:46 10° ESE visible
17 Sep - 06:14:16 10° WNW 06:23:03 50° SW 06:31:58 10° SSE visible
17 Sep - 08:22:59 10° WSW 08:26:15 12° WSW 08:29:32 10° SW night (unlit)
17 Sep - 21:32:13 10° S 21:40:14 31° SE 21:48:03 10° ENE daylight
17 Sep - 23:34:47 10° WSW 23:44:16 84° SSE 23:53:35 10° ENE daylight
18 Sep - 01:40:24 10° W 01:49:41 62° N 01:58:51 10° ENE visible
18 Sep - 03:46:08 10° WNW 03:55:26 74° NNE 04:04:44 10° ESE visible
18 Sep - 05:51:16 10° WNW 06:00:07 53° SW 06:09:06 10° SSE visible
18 Sep - 07:59:19 10° W 08:03:23 14° WSW 08:07:29 10° SSW night (unlit)
18 Sep - 21:09:30 10° S 21:17:19 29° SE 21:24:57 10° ENE daylight
18 Sep - 23:11:47 10° SW 23:21:18 81° SSE 23:30:36 10° ENE daylight
19 Sep - 01:17:20 10° W 01:26:38 63° N 01:35:49 10° ENE visible
19 Sep - 03:23:07 10° WNW 03:32:25 72° NNE 03:41:42 10° ESE visible
19 Sep - 05:28:15 10° WNW 05:37:11 56° SW 05:46:13 10° SE visible
19 Sep - 07:35:48 10° W 07:40:31 15° SW 07:45:17 10° SSW night (unlit)
19 Sep - 20:46:49 10° S 20:54:25 27° SE 21:01:50 10° ENE daylight
19 Sep - 22:48:48 10° SW 22:58:19 78° SSE 23:07:36 10° ENE daylight
20 Sep - 00:54:16 10° W 01:03:36 64° N 01:12:48 10° ENE visible
20 Sep - 03:00:06 10° WNW 03:09:24 71° NNE 03:18:40 10° E visible
20 Sep - 05:05:15 10° WNW 05:14:14 59° SW 05:23:20 10° SE visible
20 Sep - 07:12:24 10° W 07:17:38 17° SW 07:22:57 10° SSW night (unlit)
20 Sep - 20:24:09 10° S 20:31:31 25° SE 20:38:42 10° ENE daylight
20 Sep - 22:25:50 10° SW 22:35:21 74° SSE 22:44:37 10° ENE daylight
